User: anonymous   Login
Location: Lisboa
(38.7223°N, 9.1393°W)
Time: 18:55:08
(UTC+01:00)
Language:

TIGRISAT - Orbit

View from above orbital plane
View from above orbital plane
View from above satellite
View from above satellite

Ground track
Ground track

The orbit data is extracted from the following two-line orbital elements,

1 40043U 14033AK  24148.70582166  .00002114  00000-0  28682-3 0  9993
2 40043  97.6943 312.3250 0055574  11.7505 348.4989 14.78832963534437
Epoch (UTC): 27 May 2024 16:56:22
Eccentricity: 0.0055574
inclination: 97.6943°
perigee height: 594 km
apogee height: 672 km
right ascension of ascending node: 312.3250°
argument of perigee: 11.7505°
revolutions per day: 14.78832963
mean anomaly at epoch: 348.4989°
orbit number at epoch: 53443

The dashed part of the orbit path shows where the satellite is in the earth's shadow,  

DLR